This demonstration page uses our WeatherBlox Daily Observations layout. Learn more.

38.88101, -77.10428

Hourly Observations for October 2, 2016

Temp ( °F °C ) Dew Point ( °F °C ) Humidity (%) Winds ( mph kmh ) Pressure ( in mb ) Visibility ( mi km ) Precip ( " mm )
12:26 am 00:26 Cloudy 64 18 64 18 100 100 NNE 5 7 30.09 1019 8 12.874752 0 0
12:52 am 00:52 Cloudy with Mist and Fog 65 18.3 65 18.3 100 100 NNE 6 9 30.09 1019 5 8.04672 0.001 0.001
1:01 am 01:01 Cloudy with Mist and Fog 65 18.3 65 18.3 100 100 NNE 7 11 30.09 1019 5 8.04672 0 0
1:36 am 01:36 Cloudy with Light Drizzle 64 18 64 18 100 100 NE 7 11 30.09 1019 2.5 4.02336 0 0
1:52 am 01:52 Cloudy with Light Drizzle 65 18.3 65 18.3 100 100 NNE 6 9 30.09 1019 2.5 4.02336 0.001 0.001
2:52 am 02:52 Cloudy with Light Drizzle 65 18.3 65 18.3 100 100 N 5 7 30.09 1019 3 4.828032 0.001 0.001
3:14 am 03:14 Cloudy with Light Drizzle 64 18 64 18 100 100 NNW 5 7 30.09 1019 2 3.218688 0 0
3:48 am 03:48 Cloudy with Light Drizzle 64 18 64 18 100 100 NNW 7 11 30.09 1019 2.5 4.02336 0 0
3:52 am 03:52 Cloudy with Light Drizzle 65 18.3 65 18.3 100 100 NNW 5 7 30.09 1019 2.5 4.02336 0.01 0.254
4:21 am 04:21 Cloudy with Light Drizzle 65 18.3 65 18.3 100 100 N 5 7 30.09 1019 4 6.437376 0.001 0.001
4:52 am 04:52 Cloudy with Light Drizzle 65 18.3 65 18.3 100 100 NNE 6 9 30.09 1019 6 9.656064 0.01 0.254
5:07 am 05:07 Cloudy with Light Drizzle 65 18.3 65 18.3 100 100 N 7 11 30.06 1018 5 8.04672 0.001 0.001
5:39 am 05:39 Cloudy with Light Drizzle 65 18.3 65 18.3 100 100 NNW 6 9 30.09 1019 9 14.484096 0.001 0.001
5:52 am 05:52 Cloudy with Light Drizzle 65 18.3 65 18.3 100 100 NE 6 9 30.09 1019 10 16.09344 0.001 0.001
6:33 am 06:33 Cloudy 65 18.3 65 18.3 100 100 NE 7 11 30.09 1019 10 16.09344 0.001 0.001
6:52 am 06:52 Cloudy 65 18.3 65 18.3 100 100 NE 6 9 30.09 1019 10 16.09344 0.001 0.001
7:05 am 07:05 Cloudy 65 18.3 64 17.8 97 97 NE 6 9 30.09 1019 10 16.09344 0 0
7:12 am 07:12 Cloudy 64 18 64 18 100 100 NE 7 11 30.09 1019 10 16.09344 0 0
7:52 am 07:52 Cloudy 65 18.3 65 18.3 100 100 NE 7 11 30.09 1019 10 16.09344 0 0
8:16 am 08:16 Cloudy 66 18.9 65 18.3 96 96 NE 6 9 30.09 1019 10 16.09344 0 0
8:26 am 08:26 Cloudy 66 19 64 18 94 94 NE 5 7 30.09 1019 10 16.09344 0 0
8:52 am 08:52 Cloudy 66 18.9 65 18.3 96 96 ENE 5 7 30.09 1019 10 16.09344 0 0
9:52 am 09:52 Cloudy 67 19.4 65 18.3 93 93 NE 5 7 30.09 1019 10 16.09344 0 0
10:13 am 10:13 Cloudy 68 20 65 18.3 90 90 Calm 30.09 1019 10 16.09344 0 0
10:52 am 10:52 Cloudy 69 20.6 65 18.3 87 87 Calm 30.09 1019 10 16.09344 0 0
11:32 am 11:32 Cloudy 70 21 64 18 83 83 Calm 30.09 1019 10 16.09344 0 0
11:52 am 11:52 Cloudy 70 21.1 65 18.3 84 84 NNE 3 6 30.09 1019 10 16.09344 0 0
12:52 pm 12:52 Mostly Cloudy 72 22.2 64 17.8 76 76 E 3 6 30.06 1018 10 16.09344 0 0
1:52 pm 13:52 Mostly Cloudy 73 22.8 64 17.8 74 74 N 3 6 30.06 1018 10 16.09344 0 0
2:52 pm 14:52 Mostly Cloudy 75 23.9 65 18.3 71 71 N 6 9 30.03 1017 10 16.09344 0 0
3:52 pm 15:52 Mostly Cloudy 75 23.9 63 17.2 66 66 Calm 30.03 1017 10 16.09344 0 0
4:52 pm 16:52 Mostly Cloudy 75 23.9 64 17.8 69 69 Calm 30.03 1017 10 16.09344 0 0
5:52 pm 17:52 Partly Cloudy 73 22.8 64 17.8 74 74 S 3 6 30 1016 10 16.09344 0 0
6:52 pm 18:52 Partly Cloudy 72 22.2 62 16.7 71 71 S 6 9 30 1016 10 16.09344 0 0
7:52 pm 19:52 Partly Cloudy 70 21.1 62 16.7 76 76 SSW 5 7 30 1016 10 16.09344 0 0
8:52 pm 20:52 Partly Cloudy 69 20.6 66 18.9 90 90 Calm 30.03 1017 10 16.09344 0 0
9:52 pm 21:52 Cloudy 68 20 67 19.4 96 96 Calm 30.03 1017 10 16.09344 0 0
10:52 pm 22:52 Cloudy 69 20.6 67 19.4 93 93 SW 3 6 30.03 1017 10 16.09344 0 0
11:52 pm 23:52 Cloudy 68 20 67 19.4 96 96 Calm 30.03 1017 10 16.09344 0 0

Powered by AerisWeather